Home   Weather   Singen (Hohentwiel)   Past weeks

Flag for Germany Past Weather in Singen (Hohentwiel), Baden-Württemberg, Germany — Yesterday and Last 2 Weeks

Now
68 °F

Passing clouds.


Feels Like: 68 °F
Forecast: 46 / 70 °F
Wind: 7 mph from Southwest

Location: Zurich-Kloten

Current Time: Sep 29, 2016 at 12:20:51 PM

Latest Report: Sep 29, 2016 at 11:50 AM


Visibility: N/A

Pressure: 30.30 "Hg

Humidity: 64%

Dew Point: 55 °F

Location of Singen (Hohentwiel)Location

Past Weather in Singen (Hohentwiel) — Graph

°F

Singen (Hohentwiel) Temperature Yesterday

Maximum temperature yesterday: 72 °F (at 3:20 PM)
Minimum temperature yesterday: 46 °F (at 2:50 AM)
Average temperature yesterday: 58 °F

High & Low Weather Summary for the Past Weeks

 TemperatureHumidityPressure
High82 °F (Sep 14, 2:50 PM)100% (Sep 15, 3:20 AM)30.48 "Hg (Sep 15, 3:20 AM)
Low41 °F (Sep 22, 6:20 AM)38% (Sep 25, 4:50 PM)29.80 "Hg (Sep 15, 3:20 AM)
Average58 °F82%30.13 "Hg
* Reported Sep 14 11:20 AM — Sep 29 11:20 AM, Singen (Hohentwiel), Weather by CustomWeather, © 2016

Note: Actual official high and low records may vary slightly from our data, if they occured in-between our weather recording intervals... More about our weather records

Advertising

Singen (Hohentwiel) Weather History for the Previous 24 Hours

Scroll right to see more
 ConditionsComfort  
Time TempWeatherWind HumidityBarometerVisibility
11:20 AM
Thu, Sep 29
66 °FPassing clouds.8 mph64%30.30 "HgN/A
10:50 AM64 °FPassing clouds.3 mph73%30.30 "HgN/A
10:20 AM61 °FPassing clouds.5 mph83%30.33 "HgN/A
9:50 AM59 °FSunny.5 mph88%30.33 "Hg10 mi
9:20 AM57 °FSunny.5 mph88%30.33 "Hg10 mi
8:50 AM55 °FSunny.5 mph88%30.33 "Hg10 mi
8:20 AM52 °FClear.2 mph94%30.33 "Hg6 mi
7:50 AM50 °FFog.3 mph100%30.33 "Hg6 mi
7:20 AM50 °FFog.3 mph94%30.33 "Hg5 mi
6:50 AM50 °FFog.5 mph100%30.33 "Hg4 mi
6:20 AM50 °FFog.3 mph94%30.33 "Hg4 mi
5:50 AM48 °FFog.3 mph100%30.33 "Hg4 mi
5:20 AM48 °FFog.2 mph94%30.33 "Hg4 mi
4:50 AM48 °FLight fog.2 mph100%30.36 "Hg4 mi
4:20 AM48 °FFog.1 mph100%30.36 "Hg5 mi
3:50 AM50 °FFog.1 mph100%30.36 "Hg5 mi
3:20 AM50 °FFog.No wind94%30.36 "Hg5 mi
2:50 AM50 °FFog.No wind100%30.39 "HgN/A
1:50 AM52 °FFog.2 mph100%30.39 "HgN/A
1:20 AM52 °FFog.No wind94%30.39 "HgN/A
12:50 AM54 °FClear.2 mph88%30.39 "Hg10 mi
12:20 AM54 °FClear.2 mph94%30.39 "Hg10 mi
11:50 PM
Wed, Sep 28
54 °FPassing clouds.3 mph94%30.42 "HgN/A
11:20 PM54 °FFog.2 mph100%30.42 "HgN/A
10:50 PM54 °FFog.2 mph100%30.42 "HgN/A
10:20 PM55 °FFog.2 mph94%30.42 "HgN/A
9:50 PM55 °FClear.2 mph94%30.42 "Hg10 mi
9:20 PM57 °FClear.1 mph88%30.42 "Hg10 mi
8:50 PM59 °FClear.2 mph88%30.42 "Hg10 mi
8:20 PM61 °FClear.2 mph83%30.42 "Hg10 mi
7:50 PM61 °FClear.1 mph83%30.42 "Hg10 mi
7:20 PM66 °FClear.1 mph68%30.42 "Hg10 mi
6:50 PM68 °FSunny.2 mph64%30.42 "Hg10 mi
6:20 PM68 °FSunny.3 mph64%30.39 "Hg10 mi
5:50 PM70 °FPassing clouds.5 mph57%30.39 "HgN/A
5:20 PM72 °FPassing clouds.6 mph53%30.39 "HgN/A
4:50 PM72 °FPassing clouds.7 mph50%30.39 "HgN/A
4:20 PM72 °FPassing clouds.8 mph53%30.39 "HgN/A
3:50 PM72 °FClear.7 mph53%30.39 "HgN/A
3:20 PM72 °FPassing clouds.7 mph53%30.42 "HgN/A
2:50 PM70 °FPassing clouds.9 mph53%30.42 "HgN/A
2:20 PM70 °FScattered clouds.8 mph57%30.42 "HgN/A
1:50 PM68 °FScattered clouds.7 mph60%30.45 "HgN/A
1:20 PM68 °FScattered clouds.8 mph64%30.45 "HgN/A
12:50 PM66 °FScattered clouds.6 mph68%30.45 "HgN/A
12:20 PM64 °FScattered clouds.6 mph73%30.45 "Hg6 mi
Weather by CustomWeather, © 2016

See weather overviewHow to use our weather pages